owner,sensor,date,latitude,longitude,vertical_datum,sea_water_practical_salinity,qcFlag 
SCCF RECON,ioos:station:SCCF:13:1,2010-07-01T00:00:00Z,26.5255,-82.0032,2.41,24.19,1111122 
SCCF RECON,ioos:station:SCCF:13:1,2010-07-01T01:00:00Z,26.5255,-82.0032,2.34,14.58,1111122 
SCCF RECON,ioos:station:SCCF:13:1,2010-07-01T02:00:00Z,26.5255,-82.0032,2.269,12.9,1111122 
SCCF RECON,ioos:station:SCCF:13:1,2010-07-01T03:00:00Z,26.5255,-82.0032,2.21,12.3,1111122 
SCCF RECON,ioos:station:SCCF:13:1,2010-07-01T04:00:00Z,26.5255,-82.0032,2.171,11.41,1111122 
SCCF RECON,ioos:station:SCCF:13:1,2010-07-01T05:00:00Z,26.5255,-82.0032,2.237,10.5,1111122 
SCCF RECON,ioos:station:SCCF:13:1,2010-07-01T06:00:00Z,26.5255,-82.0032,2.35,9.8,1111122 
SCCF RECON,ioos:station:SCCF:13:1,2010-07-01T07:00:00Z,26.5255,-82.0032,2.453,13.05,1111122 
SCCF RECON,ioos:station:SCCF:13:1,2010-07-01T08:00:00Z,26.5255,-82.0032,2.51,19.52,1111122 
SCCF RECON,ioos:station:SCCF:13:1,2010-07-01T09:00:00Z,26.5255,-82.0032,2.522,23.53,1111122 
SCCF RECON,ioos:station:SCCF:13:1,2010-07-01T10:00:00Z,26.5255,-82.0032,2.53,28.34,1111122 
SCCF RECON,ioos:station:SCCF:13:1,2010-07-01T11:00:00Z,26.5255,-82.0032,2.51,28.85,1111122 
SCCF RECON,ioos:station:SCCF:13:1,2010-07-01T12:00:00Z,26.5255,-82.0032,2.49,29.65,1111122 
SCCF RECON,ioos:station:SCCF:13:1,2010-07-01T13:00:00Z,26.5255,-82.0032,2.47,29.32,1111122 
SCCF RECON,ioos:station:SCCF:13:1,2010-07-01T14:00:00Z,26.5255,-82.0032,2.41,25.48,1111122 
SCCF RECON,ioos:station:SCCF:13:1,2010-07-01T15:00:00Z,26.5255,-82.0032,2.35,23.0,1111122 
SCCF RECON,ioos:station:SCCF:13:1,2010-07-01T16:00:00Z,26.5255,-82.0032,2.35,16.42,1111122 
SCCF RECON,ioos:station:SCCF:13:1,2010-07-01T17:00:00Z,26.5255,-82.0032,2.41,17.21,1111122 
SCCF RECON,ioos:station:SCCF:13:1,2010-07-01T18:00:00Z,26.5255,-82.0032,2.47,24.88,1111122 
SCCF RECON,ioos:station:SCCF:13:1,2010-07-01T19:00:00Z,26.5255,-82.0032,2.529,23.88,1111122 
SCCF RECON,ioos:station:SCCF:13:1,2010-07-01T20:00:00Z,26.5255,-82.0032,2.57,26.19,1111122 
SCCF RECON,ioos:station:SCCF:13:1,2010-07-01T21:00:00Z,26.5255,-82.0032,2.622,27.75,1111122 
SCCF RECON,ioos:station:SCCF:13:1,2010-07-01T22:00:00Z,26.5255,-82.0032,2.591,29.44,1111122 
SCCF RECON,ioos:station:SCCF:13:1,2010-07-01T23:00:00Z,26.5255,-82.0032,2.522,29.22,1111122 
SCCF RECON,ioos:station:SCCF:13:1,2010-07-02T00:00:00Z,26.5255,-82.0032,2.43,25.02,1111122 
SCCF RECON,ioos:station:SCCF:13:1,2010-07-02T01:00:00Z,26.5255,-82.0032,2.34,16.11,1111122 
SCCF RECON,ioos:station:SCCF:13:1,2010-07-02T02:00:00Z,26.5255,-82.0032,2.28,13.33,1111122 
SCCF RECON,ioos:station:SCCF:13:1,2010-07-02T03:00:00Z,26.5255,-82.0032,2.22,11.9,1111122 
SCCF RECON,ioos:station:SCCF:13:1,2010-07-02T04:00:00Z,26.5255,-82.0032,2.18,10.78,1111122 
SCCF RECON,ioos:station:SCCF:13:1,2010-07-02T05:00:00Z,26.5255,-82.0032,2.2,10.17,1111122 
SCCF RECON,ioos:station:SCCF:13:1,2010-07-02T06:00:00Z,26.5255,-82.0032,2.26,9.63,1111122 
SCCF RECON,ioos:station:SCCF:13:1,2010-07-02T07:00:00Z,26.5255,-82.0032,2.35,9.49,1111122 
SCCF RECON,ioos:station:SCCF:13:1,2010-07-02T08:00:00Z,26.5255,-82.0032,2.437,15.21,1111122 
SCCF RECON,ioos:station:SCCF:13:1,2010-07-02T09:00:00Z,26.5255,-82.0032,2.471,18.97,1111122 
SCCF RECON,ioos:station:SCCF:13:1,2010-07-02T10:00:00Z,26.5255,-82.0032,2.497,22.75,1111122 
SCCF RECON,ioos:station:SCCF:13:1,2010-07-02T11:00:00Z,26.5255,-82.0032,2.5,25.71,1111122 
SCCF RECON,ioos:station:SCCF:13:1,2010-07-02T12:00:00Z,26.5255,-82.0032,2.47,28.08,1111122 
SCCF RECON,ioos:station:SCCF:13:1,2010-07-02T13:00:00Z,26.5255,-82.0032,2.41,27.1,1111122 
SCCF RECON,ioos:station:SCCF:13:1,2010-07-02T14:00:00Z,26.5255,-82.0032,2.36,22.51,1111122 
SCCF RECON,ioos:station:SCCF:13:1,2010-07-02T15:00:00Z,26.5255,-82.0032,2.295,13.5,1111122 
SCCF RECON,ioos:station:SCCF:13:1,2010-07-02T16:00:00Z,26.5255,-82.0032,2.249,10.82,1111122 
SCCF RECON,ioos:station:SCCF:13:1,2010-07-02T17:00:00Z,26.5255,-82.0032,2.29,9.98,1111122 
SCCF RECON,ioos:station:SCCF:13:1,2010-07-02T18:00:00Z,26.5255,-82.0032,2.34,10.47,1111122 
SCCF RECON,ioos:station:SCCF:13:1,2010-07-02T19:00:00Z,26.5255,-82.0032,2.399,22.15,1111122 
SCCF RECON,ioos:station:SCCF:13:1,2010-07-02T20:00:00Z,26.5255,-82.0032,2.45,25.23,1111122 
SCCF RECON,ioos:station:SCCF:13:1,2010-07-02T21:00:00Z,26.5255,-82.0032,2.458,26.3,1111122 
SCCF RECON,ioos:station:SCCF:13:1,2010-07-02T22:00:00Z,26.5255,-82.0032,2.47,26.27,1111122 
SCCF RECON,ioos:station:SCCF:13:1,2010-07-02T23:00:00Z,26.5255,-82.0032,2.47,25.62,1111122 
SCCF RECON,ioos:station:SCCF:13:1,2010-07-03T00:00:00Z,26.5255,-82.0032,2.43,25.68,1111122 
SCCF RECON,ioos:station:SCCF:13:1,2010-07-03T01:00:00Z,26.5255,-82.0032,2.38,21.87,1111122 
SCCF RECON,ioos:station:SCCF:13:1,2010-07-03T02:00:00Z,26.5255,-82.0032,2.298,15.48,1111122 
SCCF RECON,ioos:station:SCCF:13:1,2010-07-03T03:00:00Z,26.5255,-82.0032,2.21,10.76,1111122 
SCCF RECON,ioos:station:SCCF:13:1,2010-07-03T04:00:00Z,26.5255,-82.0032,2.179,9.61,1111122 
SCCF RECON,ioos:station:SCCF:13:1,2010-07-03T05:00:00Z,26.5255,-82.0032,2.16,9.07,1111122 
SCCF RECON,ioos:station:SCCF:13:1,2010-07-03T06:00:00Z,26.5255,-82.0032,2.239,8.18,1111122 
SCCF RECON,ioos:station:SCCF:13:1,2010-07-03T07:00:00Z,26.5255,-82.0032,2.35,8.8,1111122 
SCCF RECON,ioos:station:SCCF:13:1,2010-07-03T08:00:00Z,26.5255,-82.0032,1.0,-9999.0,1111122 
SCCF RECON,ioos:station:SCCF:13:1,2010-07-03T09:00:00Z,26.5255,-82.0032,2.49,20.46,1111122 
SCCF RECON,ioos:station:SCCF:13:1,2010-07-03T10:00:00Z,26.5255,-82.0032,2.52,24.52,1111122 
SCCF RECON,ioos:station:SCCF:13:1,2010-07-03T11:00:00Z,26.5255,-82.0032,2.58,27.17,1111122 
SCCF RECON,ioos:station:SCCF:13:1,2010-07-03T12:00:00Z,26.5255,-82.0032,2.595,27.33,1111122 
SCCF RECON,ioos:station:SCCF:13:1,2010-07-03T13:00:00Z,26.5255,-82.0032,2.548,27.51,1111122 
SCCF RECON,ioos:station:SCCF:13:1,2010-07-03T14:00:00Z,26.5255,-82.0032,2.47,27.58,1111122 
SCCF RECON,ioos:station:SCCF:13:1,2010-07-03T15:00:00Z,26.5255,-82.0032,2.41,24.38,1111122 
SCCF RECON,ioos:station:SCCF:13:1,2010-07-03T16:00:00Z,26.5255,-82.0032,2.352,17.36,1111122 
SCCF RECON,ioos:station:SCCF:13:1,2010-07-03T17:00:00Z,26.5255,-82.0032,2.3,12.73,1111122 
SCCF RECON,ioos:station:SCCF:13:1,2010-07-03T18:00:00Z,26.5255,-82.0032,2.27,11.06,1111122 
SCCF RECON,ioos:station:SCCF:13:1,2010-07-03T19:00:00Z,26.5255,-82.0032,2.31,10.62,1111122 
SCCF RECON,ioos:station:SCCF:13:1,2010-07-03T20:00:00Z,26.5255,-82.0032,2.4,10.6,1111122 
SCCF RECON,ioos:station:SCCF:13:1,2010-07-03T21:00:00Z,26.5255,-82.0032,2.46,20.6,1111122 
SCCF RECON,ioos:station:SCCF:13:1,2010-07-03T22:00:00Z,26.5255,-82.0032,2.526,23.79,1111122 
SCCF RECON,ioos:station:SCCF:13:1,2010-07-03T23:00:00Z,26.5255,-82.0032,2.56,22.89,1111122 
SCCF RECON,ioos:station:SCCF:13:1,2010-07-04T00:00:00Z,26.5255,-82.0032,2.52,24.39,1111122 
SCCF RECON,ioos:station:SCCF:13:1,2010-07-04T01:00:00Z,26.5255,-82.0032,2.46,25.2,1111122 
SCCF RECON,ioos:station:SCCF:13:1,2010-07-04T02:00:00Z,26.5255,-82.0032,2.4,22.91,1111122 
SCCF RECON,ioos:station:SCCF:13:1,2010-07-04T03:00:00Z,26.5255,-82.0032,2.357,17.82,1111122 
SCCF RECON,ioos:station:SCCF:13:1,2010-07-04T04:00:00Z,26.5255,-82.0032,2.297,10.38,1111122 
SCCF RECON,ioos:station:SCCF:13:1,2010-07-04T05:00:00Z,26.5255,-82.0032,2.25,9.81,1111122 
SCCF RECON,ioos:station:SCCF:13:1,2010-07-04T06:00:00Z,26.5255,-82.0032,2.29,8.53,1111122 
SCCF RECON,ioos:station:SCCF:13:1,2010-07-04T07:00:00Z,26.5255,-82.0032,2.35,8.39,1111122 
SCCF RECON,ioos:station:SCCF:13:1,2010-07-04T08:00:00Z,26.5255,-82.0032,2.44,19.4,1111122 
SCCF RECON,ioos:station:SCCF:13:1,2010-07-04T09:00:00Z,26.5255,-82.0032,2.53,21.24,1111122 
SCCF RECON,ioos:station:SCCF:13:1,2010-07-04T10:00:00Z,26.5255,-82.0032,2.57,24.52,1111122 
SCCF RECON,ioos:station:SCCF:13:1,2010-07-04T11:00:00Z,26.5255,-82.0032,2.62,26.74,1111122 
SCCF RECON,ioos:station:SCCF:13:1,2010-07-04T12:00:00Z,26.5255,-82.0032,2.64,28.43,1111122 
SCCF RECON,ioos:station:SCCF:13:1,2010-07-04T13:00:00Z,26.5255,-82.0032,2.63,28.46,1111122 
SCCF RECON,ioos:station:SCCF:13:1,2010-07-04T14:00:00Z,26.5255,-82.0032,2.57,28.84,1111122 
SCCF RECON,ioos:station:SCCF:13:1,2010-07-04T15:00:00Z,26.5255,-82.0032,2.489,28.8,1111122 
SCCF RECON,ioos:station:SCCF:13:1,2010-07-04T16:00:00Z,26.5255,-82.0032,2.398,17.79,1111122 
SCCF RECON,ioos:station:SCCF:13:1,2010-07-04T17:00:00Z,26.5255,-82.0032,2.329,11.15,1111122 
SCCF RECON,ioos:station:SCCF:13:1,2010-07-04T18:00:00Z,26.5255,-82.0032,2.3,9.26,1111122 
SCCF RECON,ioos:station:SCCF:13:1,2010-07-04T19:00:00Z,26.5255,-82.0032,2.26,9.03,1111122 
SCCF RECON,ioos:station:SCCF:13:1,2010-07-04T20:00:00Z,26.5255,-82.0032,2.28,8.67,1111122 
SCCF RECON,ioos:station:SCCF:13:1,2010-07-04T21:00:00Z,26.5255,-82.0032,2.37,7.9,1111122 
SCCF RECON,ioos:station:SCCF:13:1,2010-07-04T22:00:00Z,26.5255,-82.0032,2.449,9.01,1111122 
SCCF RECON,ioos:station:SCCF:13:1,2010-07-04T23:00:00Z,26.5255,-82.0032,2.42,17.85,1111122 
SCCF RECON,ioos:station:SCCF:13:1,2010-07-05T00:00:00Z,26.5255,-82.0032,2.44,20.47,1111122 
SCCF RECON,ioos:station:SCCF:13:1,2010-07-05T01:00:00Z,26.5255,-82.0032,2.47,22.72,1111122 
SCCF RECON,ioos:station:SCCF:13:1,2010-07-05T02:00:00Z,26.5255,-82.0032,2.46,23.55,1111122 
SCCF RECON,ioos:station:SCCF:13:1,2010-07-05T03:00:00Z,26.5255,-82.0032,2.46,24.36,1111122 
SCCF RECON,ioos:station:SCCF:13:1,2010-07-05T04:00:00Z,26.5255,-82.0032,2.429,21.38,1111122 
SCCF RECON,ioos:station:SCCF:13:1,2010-07-05T05:00:00Z,26.5255,-82.0032,2.367,15.41,1111122 
SCCF RECON,ioos:station:SCCF:13:1,2010-07-05T06:00:00Z,26.5255,-82.0032,2.32,12.44,1111122 
SCCF RECON,ioos:station:SCCF:13:1,2010-07-05T07:00:00Z,26.5255,-82.0032,2.34,8.0,1111122 
SCCF RECON,ioos:station:SCCF:13:1,2010-07-05T08:00:00Z,26.5255,-82.0032,2.41,19.0,1111122 
SCCF RECON,ioos:station:SCCF:13:1,2010-07-05T09:00:00Z,26.5255,-82.0032,2.51,22.5,1111122 
SCCF RECON,ioos:station:SCCF:13:1,2010-07-05T10:00:00Z,26.5255,-82.0032,2.57,24.56,1111122 
SCCF RECON,ioos:station:SCCF:13:1,2010-07-05T11:00:00Z,26.5255,-82.0032,2.595,24.67,1111122 
SCCF RECON,ioos:station:SCCF:13:1,2010-07-05T12:00:00Z,26.5255,-82.0032,2.63,26.18,1111122 
SCCF RECON,ioos:station:SCCF:13:1,2010-07-05T13:00:00Z,26.5255,-82.0032,2.651,27.26,1111122 
SCCF RECON,ioos:station:SCCF:13:1,2010-07-05T14:00:00Z,26.5255,-82.0032,2.64,27.76,1111122 
SCCF RECON,ioos:station:SCCF:13:1,2010-07-05T15:00:00Z,26.5255,-82.0032,2.54,27.61,1111122 
SCCF RECON,ioos:station:SCCF:13:1,2010-07-05T16:00:00Z,26.5255,-82.0032,2.47,24.32,1111122 
SCCF RECON,ioos:station:SCCF:13:1,2010-07-05T17:00:00Z,26.5255,-82.0032,2.379,13.33,1111122 
SCCF RECON,ioos:station:SCCF:13:1,2010-07-05T18:00:00Z,26.5255,-82.0032,2.3,10.67,1111122 
SCCF RECON,ioos:station:SCCF:13:1,2010-07-05T19:00:00Z,26.5255,-82.0032,2.24,8.8,1111122 
SCCF RECON,ioos:station:SCCF:13:1,2010-07-05T20:00:00Z,26.5255,-82.0032,2.259,7.81,1111122 
SCCF RECON,ioos:station:SCCF:13:1,2010-07-05T21:00:00Z,26.5255,-82.0032,2.454,8.2,1111122 
SCCF RECON,ioos:station:SCCF:13:1,2010-07-05T22:00:00Z,26.5255,-82.0032,2.32,7.79,1111122 
SCCF RECON,ioos:station:SCCF:13:1,2010-07-05T23:00:00Z,26.5255,-82.0032,2.33,6.97,1111122 
SCCF RECON,ioos:station:SCCF:13:1,2010-07-06T00:00:00Z,26.5255,-82.0032,2.34,6.62,1111122 
SCCF RECON,ioos:station:SCCF:13:1,2010-07-06T01:00:00Z,26.5255,-82.0032,2.394,8.37,1111122 
SCCF RECON,ioos:station:SCCF:13:1,2010-07-06T02:00:00Z,26.5255,-82.0032,2.43,16.34,1111122 
SCCF RECON,ioos:station:SCCF:13:1,2010-07-06T03:00:00Z,26.5255,-82.0032,2.36,16.93,1111122 
SCCF RECON,ioos:station:SCCF:13:1,2010-07-06T04:00:00Z,26.5255,-82.0032,2.34,16.67,1111122 
SCCF RECON,ioos:station:SCCF:13:1,2010-07-06T05:00:00Z,26.5255,-82.0032,2.367,19.31,1111122 
SCCF RECON,ioos:station:SCCF:13:1,2010-07-06T06:00:00Z,26.5255,-82.0032,2.37,20.56,1111122 
SCCF RECON,ioos:station:SCCF:13:1,2010-07-06T07:00:00Z,26.5255,-82.0032,2.35,21.21,1111122 
SCCF RECON,ioos:station:SCCF:13:1,2010-07-06T08:00:00Z,26.5255,-82.0032,2.36,22.16,1111122 
SCCF RECON,ioos:station:SCCF:13:1,2010-07-06T09:00:00Z,26.5255,-82.0032,2.43,22.47,1111122 
SCCF RECON,ioos:station:SCCF:13:1,2010-07-06T10:00:00Z,26.5255,-82.0032,2.5,24.79,1111122 
SCCF RECON,ioos:station:SCCF:13:1,2010-07-06T11:00:00Z,26.5255,-82.0032,2.56,25.85,1111122 
SCCF RECON,ioos:station:SCCF:13:1,2010-07-06T12:00:00Z,26.5255,-82.0032,2.602,24.22,1111122 
SCCF RECON,ioos:station:SCCF:13:1,2010-07-06T13:00:00Z,26.5255,-82.0032,2.642,25.63,1111122 
SCCF RECON,ioos:station:SCCF:13:1,2010-07-06T14:00:00Z,26.5255,-82.0032,2.63,26.14,1111122 
SCCF RECON,ioos:station:SCCF:13:1,2010-07-06T15:00:00Z,26.5255,-82.0032,2.574,26.41,1111122 
SCCF RECON,ioos:station:SCCF:13:1,2010-07-06T16:00:00Z,26.5255,-82.0032,2.5,26.38,1111122 
SCCF RECON,ioos:station:SCCF:13:1,2010-07-06T17:00:00Z,26.5255,-82.0032,2.41,18.83,1111122 
SCCF RECON,ioos:station:SCCF:13:1,2010-07-06T18:00:00Z,26.5255,-82.0032,2.33,9.34,1111122 
SCCF RECON,ioos:station:SCCF:13:1,2010-07-06T19:00:00Z,26.5255,-82.0032,2.26,7.45,1111122 
SCCF RECON,ioos:station:SCCF:13:1,2010-07-06T20:00:00Z,26.5255,-82.0032,2.199,6.37,1111122 
SCCF RECON,ioos:station:SCCF:13:1,2010-07-06T21:00:00Z,26.5255,-82.0032,2.176,6.11,1111122 
SCCF RECON,ioos:station:SCCF:13:1,2010-07-06T22:00:00Z,26.5255,-82.0032,2.216,5.96,1111122 
SCCF RECON,ioos:station:SCCF:13:1,2010-07-06T23:00:00Z,26.5255,-82.0032,2.32,5.37,1111122 
SCCF RECON,ioos:station:SCCF:13:1,2010-07-07T00:00:00Z,26.5255,-82.0032,2.38,5.23,1111122 
SCCF RECON,ioos:station:SCCF:13:1,2010-07-07T01:00:00Z,26.5255,-82.0032,2.41,11.83,1111122 
SCCF RECON,ioos:station:SCCF:13:1,2010-07-07T02:00:00Z,26.5255,-82.0032,2.439,15.3,1111122 
SCCF RECON,ioos:station:SCCF:13:1,2010-07-07T03:00:00Z,26.5255,-82.0032,2.45,18.36,1111122 
SCCF RECON,ioos:station:SCCF:13:1,2010-07-07T04:00:00Z,26.5255,-82.0032,2.44,20.39,1111122 
SCCF RECON,ioos:station:SCCF:13:1,2010-07-07T05:00:00Z,26.5255,-82.0032,2.43,21.91,1111122 
SCCF RECON,ioos:station:SCCF:13:1,2010-07-07T06:00:00Z,26.5255,-82.0032,2.42,22.2,1111122 
SCCF RECON,ioos:station:SCCF:13:1,2010-07-07T07:00:00Z,26.5255,-82.0032,2.429,23.86,1111122 
SCCF RECON,ioos:station:SCCF:13:1,2010-07-07T08:00:00Z,26.5255,-82.0032,2.4,24.5,1111122 
SCCF RECON,ioos:station:SCCF:13:1,2010-07-07T09:00:00Z,26.5255,-82.0032,2.41,25.23,1111122 
SCCF RECON,ioos:station:SCCF:13:1,2010-07-07T10:00:00Z,26.5255,-82.0032,2.46,24.72,1111122 
SCCF RECON,ioos:station:SCCF:13:1,2010-07-07T11:00:00Z,26.5255,-82.0032,2.52,25.02,1111122 
SCCF RECON,ioos:station:SCCF:13:1,2010-07-07T12:00:00Z,26.5255,-82.0032,2.58,26.73,1111122 
SCCF RECON,ioos:station:SCCF:13:1,2010-07-07T13:00:00Z,26.5255,-82.0032,2.62,26.82,1111122 
SCCF RECON,ioos:station:SCCF:13:1,2010-07-07T14:00:00Z,26.5255,-82.0032,2.65,25.58,1111122 
SCCF RECON,ioos:station:SCCF:13:1,2010-07-07T15:00:00Z,26.5255,-82.0032,2.667,27.47,1111122 
SCCF RECON,ioos:station:SCCF:13:1,2010-07-07T16:00:00Z,26.5255,-82.0032,2.614,27.27,1111122 
SCCF RECON,ioos:station:SCCF:13:1,2010-07-07T17:00:00Z,26.5255,-82.0032,2.48,27.21,1111122 
SCCF RECON,ioos:station:SCCF:13:1,2010-07-07T18:00:00Z,26.5255,-82.0032,2.347,11.96,1111122 
SCCF RECON,ioos:station:SCCF:13:1,2010-07-07T19:00:00Z,26.5255,-82.0032,2.256,7.49,1111122 
SCCF RECON,ioos:station:SCCF:13:1,2010-07-07T20:00:00Z,26.5255,-82.0032,2.18,5.95,1111122 
SCCF RECON,ioos:station:SCCF:13:1,2010-07-07T21:00:00Z,26.5255,-82.0032,2.12,4.89,1111122 
SCCF RECON,ioos:station:SCCF:13:1,2010-07-07T22:00:00Z,26.5255,-82.0032,2.09,4.51,1111122 
SCCF RECON,ioos:station:SCCF:13:1,2010-07-07T23:00:00Z,26.5255,-82.0032,2.12,4.17,1111122 
SCCF RECON,ioos:station:SCCF:13:1,2010-07-08T00:00:00Z,26.5255,-82.0032,2.229,3.93,1111122 
SCCF RECON,ioos:station:SCCF:13:1,2010-07-08T01:00:00Z,26.5255,-82.0032,2.288,3.4,1111122 
SCCF RECON,ioos:station:SCCF:13:1,2010-07-08T02:00:00Z,26.5255,-82.0032,2.34,3.26,1111122 
SCCF RECON,ioos:station:SCCF:13:1,2010-07-08T03:00:00Z,26.5255,-82.0032,2.39,8.67,1111122 
SCCF RECON,ioos:station:SCCF:13:1,2010-07-08T04:00:00Z,26.5255,-82.0032,2.44,13.63,1111122 
SCCF RECON,ioos:station:SCCF:13:1,2010-07-08T05:00:00Z,26.5255,-82.0032,2.45,17.13,1111122 
SCCF RECON,ioos:station:SCCF:13:1,2010-07-08T06:00:00Z,26.5255,-82.0032,2.43,19.87,1111122 
SCCF RECON,ioos:station:SCCF:13:1,2010-07-08T07:00:00Z,26.5255,-82.0032,2.4,21.25,1111122 
SCCF RECON,ioos:station:SCCF:13:1,2010-07-08T08:00:00Z,26.5255,-82.0032,2.35,17.76,1111122 
SCCF RECON,ioos:station:SCCF:13:1,2010-07-08T09:00:00Z,26.5255,-82.0032,2.33,14.88,1111122 
SCCF RECON,ioos:station:SCCF:13:1,2010-07-08T10:00:00Z,26.5255,-82.0032,2.37,16.61,1111122 
SCCF RECON,ioos:station:SCCF:13:1,2010-07-08T11:00:00Z,26.5255,-82.0032,2.46,20.99,1111122 
SCCF RECON,ioos:station:SCCF:13:1,2010-07-08T12:00:00Z,26.5255,-82.0032,2.55,21.72,1111122 
SCCF RECON,ioos:station:SCCF:13:1,2010-07-08T13:00:00Z,26.5255,-82.0032,2.61,21.25,1111122 
SCCF RECON,ioos:station:SCCF:13:1,2010-07-08T14:00:00Z,26.5255,-82.0032,2.66,24.1,1111122 
SCCF RECON,ioos:station:SCCF:13:1,2010-07-08T15:00:00Z,26.5255,-82.0032,2.697,25.42,1111122 
SCCF RECON,ioos:station:SCCF:13:1,2010-07-08T16:00:00Z,26.5255,-82.0032,2.69,26.67,1111122 
SCCF RECON,ioos:station:SCCF:13:1,2010-07-08T17:00:00Z,26.5255,-82.0032,2.6,27.16,1111122 
SCCF RECON,ioos:station:SCCF:13:1,2010-07-08T18:00:00Z,26.5255,-82.0032,2.449,24.56,1111122 
SCCF RECON,ioos:station:SCCF:13:1,2010-07-08T19:00:00Z,26.5255,-82.0032,2.331,11.52,1111122 
SCCF RECON,ioos:station:SCCF:13:1,2010-07-08T20:00:00Z,26.5255,-82.0032,2.25,8.26,1111122 
SCCF RECON,ioos:station:SCCF:13:1,2010-07-08T21:00:00Z,26.5255,-82.0032,2.16,6.91,1111122 
SCCF RECON,ioos:station:SCCF:13:1,2010-07-08T22:00:00Z,26.5255,-82.0032,2.09,6.42,1111122 
SCCF RECON,ioos:station:SCCF:13:1,2010-07-08T23:00:00Z,26.5255,-82.0032,2.053,5.86,1111122 
SCCF RECON,ioos:station:SCCF:13:1,2010-07-09T00:00:00Z,26.5255,-82.0032,2.08,5.12,1111122 
SCCF RECON,ioos:station:SCCF:13:1,2010-07-09T01:00:00Z,26.5255,-82.0032,2.179,4.05,1111122 
SCCF RECON,ioos:station:SCCF:13:1,2010-07-09T02:00:00Z,26.5255,-82.0032,2.3,3.46,1111122 
SCCF RECON,ioos:station:SCCF:13:1,2010-07-09T03:00:00Z,26.5255,-82.0032,2.42,5.02,1111122 
SCCF RECON,ioos:station:SCCF:13:1,2010-07-09T04:00:00Z,26.5255,-82.0032,2.46,10.44,1111122 
SCCF RECON,ioos:station:SCCF:13:1,2010-07-09T05:00:00Z,26.5255,-82.0032,2.49,19.39,1111122 
SCCF RECON,ioos:station:SCCF:13:1,2010-07-09T06:00:00Z,26.5255,-82.0032,2.49,20.39,1111122 
SCCF RECON,ioos:station:SCCF:13:1,2010-07-09T07:00:00Z,26.5255,-82.0032,2.46,21.64,1111122 
SCCF RECON,ioos:station:SCCF:13:1,2010-07-09T08:00:00Z,26.5255,-82.0032,2.47,21.88,1111122 
SCCF RECON,ioos:station:SCCF:13:1,2010-07-09T09:00:00Z,26.5255,-82.0032,2.46,21.81,1111122 
SCCF RECON,ioos:station:SCCF:13:1,2010-07-09T10:00:00Z,26.5255,-82.0032,2.45,21.6,1111122 
SCCF RECON,ioos:station:SCCF:13:1,2010-07-09T11:00:00Z,26.5255,-82.0032,2.5,21.81,1111122 
SCCF RECON,ioos:station:SCCF:13:1,2010-07-09T12:00:00Z,26.5255,-82.0032,2.584,21.89,1111122 
SCCF RECON,ioos:station:SCCF:13:1,2010-07-09T13:00:00Z,26.5255,-82.0032,2.65,22.65,1111122 
SCCF RECON,ioos:station:SCCF:13:1,2010-07-09T14:00:00Z,26.5255,-82.0032,2.72,23.62,1111122 
SCCF RECON,ioos:station:SCCF:13:1,2010-07-09T15:00:00Z,26.5255,-82.0032,2.77,25.18,1111122 
SCCF RECON,ioos:station:SCCF:13:1,2010-07-09T16:00:00Z,26.5255,-82.0032,2.793,26.19,1111122 
SCCF RECON,ioos:station:SCCF:13:1,2010-07-09T17:00:00Z,26.5255,-82.0032,2.76,28.82,1111122 
SCCF RECON,ioos:station:SCCF:13:1,2010-07-09T18:00:00Z,26.5255,-82.0032,2.64,28.66,1111122 
SCCF RECON,ioos:station:SCCF:13:1,2010-07-09T19:00:00Z,26.5255,-82.0032,2.481,23.65,1111122 
SCCF RECON,ioos:station:SCCF:13:1,2010-07-09T20:00:00Z,26.5255,-82.0032,2.384,14.91,1111122 
SCCF RECON,ioos:station:SCCF:13:1,2010-07-09T21:00:00Z,26.5255,-82.0032,2.285,12.05,1111122 
SCCF RECON,ioos:station:SCCF:13:1,2010-07-09T22:00:00Z,26.5255,-82.0032,2.18,9.95,1111122 
SCCF RECON,ioos:station:SCCF:13:1,2010-07-09T23:00:00Z,26.5255,-82.0032,2.101,9.26,1111122 
SCCF RECON,ioos:station:SCCF:13:1,2010-07-10T00:00:00Z,26.5255,-82.0032,2.07,8.25,1111122 
SCCF RECON,ioos:station:SCCF:13:1,2010-07-10T01:00:00Z,26.5255,-82.0032,2.129,6.73,1111122 
SCCF RECON,ioos:station:SCCF:13:1,2010-07-10T02:00:00Z,26.5255,-82.0032,2.25,5.12,1111122 
SCCF RECON,ioos:station:SCCF:13:1,2010-07-10T03:00:00Z,26.5255,-82.0032,2.38,5.04,1111122 
SCCF RECON,ioos:station:SCCF:13:1,2010-07-10T04:00:00Z,26.5255,-82.0032,2.45,7.7,1111122 
SCCF RECON,ioos:station:SCCF:13:1,2010-07-10T05:00:00Z,26.5255,-82.0032,2.49,11.32,1111122 
SCCF RECON,ioos:station:SCCF:13:1,2010-07-10T06:00:00Z,26.5255,-82.0032,2.51,20.31,1111122 
SCCF RECON,ioos:station:SCCF:13:1,2010-07-10T07:00:00Z,26.5255,-82.0032,2.481,20.46,1111122 
SCCF RECON,ioos:station:SCCF:13:1,2010-07-10T08:00:00Z,26.5255,-82.0032,2.45,22.62,1111122 
SCCF RECON,ioos:station:SCCF:13:1,2010-07-10T09:00:00Z,26.5255,-82.0032,2.44,22.13,1111122 
SCCF RECON,ioos:station:SCCF:13:1,2010-07-10T10:00:00Z,26.5255,-82.0032,2.44,20.91,1111122 
SCCF RECON,ioos:station:SCCF:13:1,2010-07-10T11:00:00Z,26.5255,-82.0032,2.47,22.87,1111122 
SCCF RECON,ioos:station:SCCF:13:1,2010-07-10T12:00:00Z,26.5255,-82.0032,2.536,23.04,1111122 
SCCF RECON,ioos:station:SCCF:13:1,2010-07-10T13:00:00Z,26.5255,-82.0032,2.601,23.57,1111122 
SCCF RECON,ioos:station:SCCF:13:1,2010-07-10T14:00:00Z,26.5255,-82.0032,2.68,24.81,1111122 
SCCF RECON,ioos:station:SCCF:13:1,2010-07-10T15:00:00Z,26.5255,-82.0032,2.749,23.35,1111122 
SCCF RECON,ioos:station:SCCF:13:1,2010-07-10T16:00:00Z,26.5255,-82.0032,2.806,26.66,1111122 
SCCF RECON,ioos:station:SCCF:13:1,2010-07-10T17:00:00Z,26.5255,-82.0032,2.83,26.6,1111122 
SCCF RECON,ioos:station:SCCF:13:1,2010-07-10T18:00:00Z,26.5255,-82.0032,2.76,28.73,1111122 
SCCF RECON,ioos:station:SCCF:13:1,2010-07-10T19:00:00Z,26.5255,-82.0032,2.639,28.33,1111122 
SCCF RECON,ioos:station:SCCF:13:1,2010-07-10T20:00:00Z,26.5255,-82.0032,2.49,24.02,1111122 
SCCF RECON,ioos:station:SCCF:13:1,2010-07-10T21:00:00Z,26.5255,-82.0032,2.38,19.2,1111122 
SCCF RECON,ioos:station:SCCF:13:1,2010-07-10T22:00:00Z,26.5255,-82.0032,2.28,15.81,1111122 
SCCF RECON,ioos:station:SCCF:13:1,2010-07-10T23:00:00Z,26.5255,-82.0032,2.181,12.68,1111122 
SCCF RECON,ioos:station:SCCF:13:1,2010-07-11T00:00:00Z,26.5255,-82.0032,2.11,10.09,1111122 
SCCF RECON,ioos:station:SCCF:13:1,2010-07-11T01:00:00Z,26.5255,-82.0032,2.07,8.11,1111122 
SCCF RECON,ioos:station:SCCF:13:1,2010-07-11T02:00:00Z,26.5255,-82.0032,2.155,6.26,1111122 
SCCF RECON,ioos:station:SCCF:13:1,2010-07-11T03:00:00Z,26.5255,-82.0032,2.29,4.99,1111122 
SCCF RECON,ioos:station:SCCF:13:1,2010-07-11T04:00:00Z,26.5255,-82.0032,2.399,5.08,1111122 
SCCF RECON,ioos:station:SCCF:13:1,2010-07-11T05:00:00Z,26.5255,-82.0032,2.46,9.07,1111122 
SCCF RECON,ioos:station:SCCF:13:1,2010-07-11T06:00:00Z,26.5255,-82.0032,2.5,13.83,1111122 
SCCF RECON,ioos:station:SCCF:13:1,2010-07-11T07:00:00Z,26.5255,-82.0032,2.51,20.15,1111122 
SCCF RECON,ioos:station:SCCF:13:1,2010-07-11T08:00:00Z,26.5255,-82.0032,2.47,20.92,1111122 
SCCF RECON,ioos:station:SCCF:13:1,2010-07-11T09:00:00Z,26.5255,-82.0032,2.437,21.81,1111122 
SCCF RECON,ioos:station:SCCF:13:1,2010-07-11T10:00:00Z,26.5255,-82.0032,2.4,20.73,1111122 
SCCF RECON,ioos:station:SCCF:13:1,2010-07-11T11:00:00Z,26.5255,-82.0032,2.389,16.36,1111122 
SCCF RECON,ioos:station:SCCF:13:1,2010-07-11T12:00:00Z,26.5255,-82.0032,2.43,14.78,1111122 
SCCF RECON,ioos:station:SCCF:13:1,2010-07-11T13:00:00Z,26.5255,-82.0032,2.515,21.26,1111122 
SCCF RECON,ioos:station:SCCF:13:1,2010-07-11T14:00:00Z,26.5255,-82.0032,2.61,19.24,1111122 
SCCF RECON,ioos:station:SCCF:13:1,2010-07-11T15:00:00Z,26.5255,-82.0032,2.702,20.73,1111122 
SCCF RECON,ioos:station:SCCF:13:1,2010-07-11T16:00:00Z,26.5255,-82.0032,2.78,24.24,1111122 
SCCF RECON,ioos:station:SCCF:13:1,2010-07-11T17:00:00Z,26.5255,-82.0032,2.81,25.37,1111122 
SCCF RECON,ioos:station:SCCF:13:1,2010-07-11T18:00:00Z,26.5255,-82.0032,2.811,25.91,1111122 
SCCF RECON,ioos:station:SCCF:13:1,2010-07-11T19:00:00Z,26.5255,-82.0032,2.711,28.54,1111122 